[[{"header":{"parameterUnit":"m.s-1","parameterCategory":1,"la1":30.2991,"la2":30.254,"lo1":-89.0895,"lo2":-89.0444,"dy":0.0017,"dx":0.0017,"nx":28,"ny":28,"refTime":"2026-02-25T03:00:00:Z","depth":0,"parameterNumber":2,"parameterNumberName":"U-component_of_WINDS"},"data":[0,0,0,0,0,0,0,0,0,0,0,0,0,0,0,0,0,0,0,0,0,0,0,0,0,0,0,0,0,0,0,0,0,0,0,0,0,0,0,0,0,0,0,0,0,0,0,0,0,0,0,0,0,0,0,0,0,0,3.3542,3.3544,0,3.3785,3.3788,3.3791,3.3807,3.3805,3.3802,3.3799,3.4057,3.4066,3.4075,0,0,0,0,0,0,0,0,0,0,0,0,0,3.3095,3.3103,3.3541,3.3544,3.3547,3.3785,3.3788,3.3792,3.3808,3.3804,3.3801,3.3798,3.4054,3.4065,3.4076,0,0,0,0,0,0,0,0,0,0,0,0,0,3.3309,3.3106,3.3541,3.3584,3.359,3.3784,3.3789,3.3793,3.3809,3.3804,3.38,3.3796,3.405,3.4064,3.4077,3.4248,0,0,3.4121,3.4127,0,0,0,0,0,0,0,0,3.3297,3.3326,3.3575,3.3581,3.3589,3.3762,3.3725,3.3945,3.381,3.3726,3.3799,3.3794,3.3962,3.3983,3.4038,3.426,3.4271,3.4122,3.413,3.4137,3.4141,0,0,0,0,0,0,0,3.3282,3.3315,3.3638,3.3578,3.3587,3.3593,3.3619,3.3767,3.3865,3.3733,3.3735,3.3763,3.3965,3.4025,3.4045,3.4274,3.4122,3.4134,3.4143,3.4148,3.4646,3.465,0,0,0,0,0,0,3.3258,3.3303,3.363,3.3645,3.3429,3.3604,3.3633,3.371,3.3863,3.3882,3.3766,3.3763,3.4003,3.4028,3.4054,3.4261,3.4136,3.415,3.4158,3.4641,3.4647,3.4652,0,0,0,0,0,0,3.3248,3.3287,3.3621,3.3475,3.3517,3.3616,3.3703,3.3717,3.3777,3.3888,3.3906,3.3808,3.4,3.4034,3.4198,3.4271,3.4156,3.4169,3.4636,3.4643,3.465,3.4679,0,0,0,0,0,0,3.3236,3.3284,3.3348,3.3476,3.3525,3.3759,3.3707,3.3725,3.38,3.3798,3.3932,3.3951,3.4,3.4177,3.4212,3.4288,3.418,3.463,3.4639,3.4647,3.4672,3.4686,3.4698,0,0,0,0,0,3.322,3.3348,3.3351,3.3391,3.3607,3.3763,3.3792,3.3843,3.3806,3.3872,3.3943,3.3947,3.4257,3.4194,3.4234,3.4315,3.4625,3.4636,3.4647,3.4666,3.4683,3.4698,0,0,0,0,0,0,3.323,3.3366,3.337,3.3544,3.3642,3.3766,3.3851,3.386,3.3972,3.3966,3.4027,3.4058,3.422,3.4284,3.4211,3.4486,3.4437,3.4456,3.4438,3.4456,3.4469,3.4449,3.4192,0,0,0,0,0,3.3251,3.3364,3.3479,3.3621,3.3669,3.3752,3.3822,3.3852,3.3957,3.3999,3.4083,3.4186,3.4306,3.4385,3.4502,3.4681,3.4711,3.4757,3.477,3.478,3.4796,3.4894,3.4915,3.4687,3.4687,3.4687,0,0,3.3299,3.3387,3.3456,3.3625,3.3704,3.3822,3.3786,3.3913,3.4001,3.4019,3.4178,3.4243,3.4363,3.4534,3.4614,3.4593,3.4865,3.4794,3.4801,3.4811,3.4907,3.4928,3.4947,3.4694,3.4693,3.4692,0,0,3.3444,3.3523,3.3649,3.3728,3.3847,3.3901,3.3931,3.4054,3.4097,3.4257,3.4273,3.4379,3.4586,3.467,3.474,3.4915,3.4922,3.4952,3.5021,3.5116,3.5134,3.515,3.5211,3.5233,3.4967,3.4968,3.4968,0,3.3489,3.3664,3.3714,3.3838,3.3913,3.3932,3.406,3.4136,3.4289,3.434,3.4313,3.4571,3.4654,3.4844,3.4887,3.4943,3.498,3.4937,3.5126,3.5143,3.5159,3.5219,3.5242,3.497,3.497,3.497,3.4969,0,3.3712,3.3833,3.3921,3.4064,3.4149,3.4275,3.4345,3.4425,3.4448,3.4505,3.4668,3.4766,3.4903,3.4951,3.4976,3.5145,3.5128,3.5113,3.5065,3.5183,3.5239,3.5263,3.4974,3.4973,3.4972,3.4972,0,0,3.3871,3.4038,3.407,3.4134,3.4266,3.4362,3.449,3.462,3.4687,3.4792,3.49,3.5074,3.506,3.5139,3.5175,3.5258,3.5389,3.5233,3.5237,3.5258,3.558,3.5589,3.5614,3.5394,3.5399,3.5403,3.5569,0,3.4031,3.4255,3.4302,3.4497,3.4609,3.4629,3.474,3.4834,3.489,3.4995,3.5059,3.518,3.5153,3.5201,3.5284,3.5355,3.5454,3.5344,3.5497,3.5502,3.5465,3.5644,3.5655,3.5808,3.5592,3.5596,3.5599,0,3.4247,3.4352,3.4557,3.4672,3.4721,3.482,3.4943,3.5043,3.515,3.5185,3.5272,3.5298,3.5432,3.5377,3.5564,3.5487,3.5553,3.5597,3.5604,3.562,3.5556,3.5664,3.5858,3.588,3.5634,3.5632,3.5629,0,3.434,3.4535,3.4681,3.4736,3.4875,3.4944,3.5005,3.5108,3.5183,3.5292,3.5341,3.5465,3.5532,3.5628,3.5687,3.5642,3.5868,3.5819,3.5902,3.59,3.5948,3.5944,3.6154,3.5992,3.5992,3.5991,3.5991,0,3.4513,3.4637,3.4725,3.4815,3.4955,3.5009,3.5147,3.5209,3.5299,3.5403,3.5429,3.5526,3.5598,3.5706,3.5753,3.5899,3.5931,3.5963,3.5974,3.596,3.5956,3.6004,3.5994,3.5997,3.5996,3.5995,3.5994,0,3.4641,3.4705,3.4866,3.4983,3.5015,3.5113,3.5214,3.5304,3.5359,3.549,3.5524,3.5613,3.5741,3.5809,3.597,3.6002,3.6165,3.6171,3.6128,3.6132,3.6211,3.6202,3.6458,3.6494,3.6309,3.631,3.6312,0,3.4746,3.4841,3.4967,3.5037,3.5099,3.5212,3.5287,3.5345,3.5423,3.5551,3.5625,3.5753,3.5859,3.6063,3.6143,3.6266,3.6274,3.6355,3.6293,3.6275,3.6274,3.6267,3.6276,3.6366,3.6368,3.6369,3.637,0,3.4925,3.4951,3.5058,3.5176,3.5265,3.5361,3.5457,3.5513,3.5586,3.5673,3.5802,3.5884,3.6046,3.6174,3.6302,3.6368,3.6382,3.6389,3.6415,3.6401,3.6372,3.6387,3.6157,3.6383,3.6382,3.6381,3.638,3.638,3.5044,3.5129,3.523,3.5348,3.5425,3.5513,3.5602,3.5668,3.5776,3.591,3.5939,3.6075,3.6179,3.6353,3.6422,3.6531,3.6514,3.6552,3.6561,3.6569,3.6571,3.6354,3.6555,3.6554,3.6554,3.6554,3.6554,0,3.5224,3.5289,3.5397,3.5528,3.562,3.5623,3.5728,3.5806,3.5925,3.602,3.6122,3.627,3.6393,3.6482,3.6608,3.6678,3.6687,3.6709,3.6704,3.6719,3.658,3.6544,3.6699,3.6699,3.6699,3.6699,3.6699,3.6699,3.5328,3.5471,3.5509,3.5691,3.5756,3.5888,3.5947,3.6029,3.6105,3.6268,3.6369,3.6425,3.6518,3.665,3.6764,3.6787,3.6832,3.6852,3.6876,3.6744,3.6729,3.6714,3.6681,3.6862,3.6862,3.7006,3.7007,3.7008]},{"header":{"parameterUnit":"m.s-1","parameterCategory":1,"la1":30.2991,"la2":30.254,"lo1":-89.0895,"lo2":-89.0444,"dy":0.0017,"dx":0.0017,"nx":28,"ny":28,"refTime":"2026-02-25T03:00:00:Z","depth":0,"parameterNumber":3,"parameterNumberName":"V-component_of_WINDS"},"data":[0,0,0,0,0,0,0,0,0,0,0,0,0,0,0,0,0,0,0,0,0,0,0,0,0,0,0,0,0,0,0,0,0,0,0,0,0,0,0,0,0,0,0,0,0,0,0,0,0,0,0,0,0,0,0,0,0,0,4.9441,4.9444,0,4.9687,4.969,4.9693,4.9693,4.969,4.9687,4.9684,4.9935,4.9944,4.9953,0,0,0,0,0,0,0,0,0,0,0,0,0,4.8971,4.898,4.9441,4.9444,4.9447,4.9687,4.969,4.9693,4.9694,4.969,4.9686,4.9682,4.9931,4.9943,4.9954,0,0,0,0,0,0,0,0,0,0,0,0,0,4.9192,4.8983,4.944,4.9476,4.9482,4.9686,4.969,4.9694,4.9695,4.969,4.9685,4.9681,4.9928,4.9942,4.9956,5.014,0,0,5.0,5.0006,0,0,0,0,0,0,0,0,4.9179,4.9209,4.9468,4.9474,4.9481,4.9655,4.9616,4.9844,4.9696,4.9614,4.9684,4.9678,4.9845,4.9866,4.9923,5.0152,5.0163,5.0001,5.001,5.0016,5.002,0,0,0,0,0,0,0,4.9164,4.9199,4.9538,4.9472,4.948,4.948,4.9506,4.9659,4.9753,4.9621,4.9621,4.965,4.9848,4.9909,4.9929,5.0167,5.0001,5.0014,5.0023,5.0028,5.056,5.0565,0,0,0,0,0,0,4.9142,4.9186,4.953,4.9546,4.9315,4.9492,4.9521,4.9604,4.9751,4.9769,4.9654,4.9649,4.9886,4.9912,4.9937,5.0164,5.0016,5.003,5.0038,5.0555,5.0561,5.0567,0,0,0,0,0,0,4.9132,4.9172,4.9521,4.9366,4.941,4.9505,4.9598,4.9611,4.9672,4.9777,4.9793,4.9699,4.9884,4.9917,5.009,5.0172,5.0036,5.0049,5.0548,5.0557,5.0564,5.0617,0,0,0,0,0,0,4.9118,4.9169,4.924,4.9368,4.9419,4.967,4.9603,4.9619,4.9697,4.9693,4.9824,4.9841,4.9882,5.0069,5.0104,5.019,5.0061,5.0541,5.0552,5.0562,5.0609,5.0626,5.0641,0,0,0,0,0,4.9101,4.9245,4.9244,4.9285,4.951,4.9674,4.9704,4.9749,4.9704,4.9776,4.9843,4.9837,5.0157,5.0086,5.0127,5.0218,5.0536,5.0549,5.0561,5.0601,5.0623,5.0641,0,0,0,0,0,0,4.9124,4.9262,4.9262,4.9452,4.9551,4.9674,4.9767,4.977,4.9885,4.9876,4.9927,4.9957,5.013,5.0191,5.0109,5.0404,5.0341,5.0362,5.0358,5.038,5.0395,5.0378,5.0073,0,0,0,0,0,4.9151,4.9274,4.9387,4.9543,4.9594,4.9672,4.9745,4.9771,4.9877,4.9919,4.9999,5.0101,5.0225,5.0305,5.0425,5.0617,5.0646,5.0699,5.0716,5.0729,5.0747,5.0853,5.0879,5.0607,5.0607,5.0607,0,0,4.9208,4.9299,4.9373,4.955,4.9631,4.9756,4.9707,4.9842,4.9936,4.9939,5.0108,5.017,5.0287,5.0471,5.0556,5.0527,5.0828,5.0744,5.0754,5.0765,5.0868,5.0894,5.0917,5.0616,5.0614,5.0613,0,0,4.9377,4.9458,4.9597,4.9679,4.9801,4.9852,4.9885,5.0008,5.005,5.022,5.0225,5.0337,5.0549,5.0633,5.0703,5.0903,5.0901,5.094,5.1026,5.1129,5.1151,5.117,5.1242,5.1267,5.0957,5.0957,5.0958,0,4.9433,4.9623,4.9668,4.9804,4.9882,4.9891,5.0032,5.0109,5.0264,5.0317,5.0283,5.055,5.0629,5.0833,5.0881,5.0938,5.0978,5.0926,5.1144,5.1164,5.1182,5.1252,5.1279,5.0962,5.0961,5.0961,5.096,0,4.9686,4.9817,4.9915,5.0065,5.0154,5.0291,5.0357,5.0442,5.046,5.0515,5.0688,5.0783,5.0923,5.0972,5.0992,5.1179,5.1158,5.1133,5.1071,5.1212,5.1278,5.1305,5.0967,5.0966,5.0965,5.0964,0,0,4.9877,5.005,5.0085,5.0154,5.0289,5.0392,5.0529,5.0666,5.0738,5.0844,5.0961,5.1141,5.1119,5.1199,5.1227,5.1317,5.1471,5.1282,5.1286,5.1315,5.1684,5.1702,5.1732,5.147,5.1475,5.1479,5.1674,0,5.0061,5.0307,5.0351,5.0566,5.0688,5.0698,5.0819,5.0915,5.0969,5.108,5.114,5.1267,5.1228,5.1276,5.1366,5.1433,5.1546,5.1419,5.158,5.1585,5.1551,5.1767,5.1787,5.1966,5.17,5.1705,5.1708,0,5.0309,5.0422,5.0649,5.0768,5.0821,5.0929,5.1058,5.1164,5.1273,5.1306,5.1395,5.1413,5.1556,5.1487,5.1685,5.1598,5.1666,5.1709,5.1717,5.1735,5.1656,5.1791,5.2025,5.2052,5.1749,5.1746,5.1743,0,5.0426,5.0635,5.0799,5.0857,5.1,5.1075,5.1138,5.1242,5.1322,5.1434,5.1486,5.1614,5.1684,5.1782,5.1833,5.1778,5.2028,5.1963,5.206,5.2059,5.2113,5.211,5.2362,5.2155,5.2155,5.2154,5.2154,0,5.0628,5.0767,5.0854,5.0954,5.111,5.1159,5.1312,5.1373,5.1466,5.1578,5.1594,5.1699,5.176,5.1874,5.1915,5.2074,5.2105,5.2136,5.2145,5.2135,5.2132,5.2181,5.2171,5.2162,5.216,5.2159,5.2157,0,5.0786,5.085,5.1029,5.115,5.1183,5.1293,5.1396,5.1494,5.1547,5.169,5.1726,5.181,5.1945,5.2006,5.2172,5.22,5.2381,5.2381,5.2344,5.2348,5.2442,5.2433,5.2737,5.2779,5.2543,5.2545,5.2547,0,5.0912,5.1019,5.1151,5.1228,5.1293,5.1416,5.1498,5.155,5.1634,5.1766,5.1848,5.1983,5.2095,5.2309,5.2385,5.2512,5.2516,5.2614,5.2536,5.2522,5.2519,5.2512,5.2524,5.2628,5.2631,5.2633,5.2634,0,5.1127,5.1153,5.127,5.1399,5.1495,5.1599,5.17,5.1762,5.183,5.1923,5.2062,5.2148,5.2318,5.2452,5.2584,5.2648,5.2654,5.2658,5.2688,5.2679,5.2654,5.267,5.2384,5.2651,5.265,5.2648,5.2647,5.2647,5.1274,5.137,5.1478,5.1608,5.169,5.1784,5.1882,5.1948,5.2064,5.2207,5.2231,5.2378,5.2484,5.2662,5.2731,5.2847,5.2823,5.2866,5.2877,5.2887,5.2893,5.2634,5.2871,5.287,5.287,5.287,5.2869,0,5.1491,5.1561,5.168,5.1822,5.1924,5.1919,5.2031,5.2116,5.2246,5.2345,5.2454,5.2613,5.2743,5.2829,5.2961,5.3037,5.3042,5.307,5.3065,5.308,5.2906,5.2868,5.3063,5.3063,5.3063,5.3063,5.3063,5.3063,5.1616,5.1779,5.1818,5.202,5.2089,5.2235,5.2299,5.2386,5.2465,5.2642,5.275,5.2806,5.2899,5.3038,5.3157,5.3179,5.3227,5.3255,5.3276,5.3112,5.3092,5.3073,5.3037,5.3265,5.3265,5.3441,5.3443,5.3444]}]]